Newport, AR

2:57 PM CDT on March 25, 2017 (GMT -0500)
Newport

Weather History for KM19 - December, 2012

Change the Weather History Date:

Monday, December 31, 2012

  Actual Average (KBVX) Record (KBVX)
Temperature  
Mean Temperature 34 °F -  
Max Temperature 36 °F 45 °F 79 °F (1951)
Min Temperature 32 °F 28 °F 0 °F (1976)
Degree Days  
Heating Degree Days 31    
Moisture  
Dew Point 34 °F    
Average Humidity 97    
Maximum Humidity 100    
Minimum Humidity 85    
Precipitation  
Precipitation 0.23 in - - ()
Sea Level Pressure  
Sea Level Pressure 30.14 in    
Wind  
Wind Speed 7 mph (NNE)    
Max Wind Speed 15 mph    
Max Gust Speed -    
Visibility 5 miles    
Events Fog , Rain , Snow    
Averages and records for this station are not official NWS values.
T = Trace of Precipitation, MM = Missing Value Source: NWS Daily Summary

Daily Weather History Graph

Daily Weather History Graph

Search for Another Location

Airport or City:

Trip Planner

Search our weather history database for the weather conditions in past years. The results will help you decide how hot, cold, wet, or windy it might be!

Date:

Astronomy

Dec. 31, 2012 Rise Set
Actual Time 7:14 AM CST 5:01 PM CST
Civil Twilight 6:45 AM CST 5:30 PM CST
Nautical Twilight 6:14 AM CST 6:02 PM CST
Astronomical Twilight 5:43 AM CST 6:33 PM CST
Moon 8:25 PM CST (12/31) 9:02 AM CST (12/31)
Length of Visible Light 10h 44m
Length of Day
9h 47m
Waning Gibbous, 90% of the Moon is Illuminated
Dec 31
Waning Gibbous
Jan 4
Last Quarter
Jan 11
New
Jan 18
First Quarter
Jan 26
Full

Hourly Weather History & Observations

Time (CST) Temp. Windchill Dew Point Humidity Pressure Visibility Wind Dir Wind Speed Gust Speed Precip Events Conditions
12:56 AM 32.9 °F 25.3 °F 29.1 °F 86% 30.32 in 10.0 mi South 9.2 mph - N/A   Mostly Cloudy
1:56 AM 32.9 °F 29.8 °F 29.1 °F 86% 30.32 in 10.0 mi South 3.5 mph - N/A   Overcast
2:56 AM 32.9 °F 29.8 °F 30.0 °F 89% 30.34 in 10.0 mi SW 3.5 mph - 0.00 in Rain Light Rain
3:56 AM 34.0 °F - 30.0 °F 85% 30.33 in 10.0 mi Calm Calm - 0.00 in   Overcast
4:56 AM 32.9 °F 29.8 °F 31.1 °F 93% 30.32 in 10.0 mi SSE 3.5 mph - N/A   Overcast
5:56 AM 32.9 °F 26.7 °F 31.1 °F 93% 30.30 in 10.0 mi SSE 6.9 mph - N/A   Overcast
6:56 AM 34.0 °F 27.2 °F 30.0 °F 85% 30.30 in 10.0 mi SSE 8.1 mph - N/A   Mostly Cloudy
7:56 AM 32.9 °F 25.3 °F 31.1 °F 93% 30.27 in 9.0 mi SSE 9.2 mph - N/A   Overcast
8:56 AM 34.0 °F 28.8 °F 31.1 °F 89% 30.25 in 9.0 mi SSE 5.8 mph - 0.00 in Rain Light Rain
9:56 AM 34.9 °F 29.0 °F 32.0 °F 89% 30.26 in 10.0 mi South 6.9 mph - 0.00 in Rain Light Rain
10:56 AM 36.0 °F 30.3 °F 32.9 °F 89% 30.25 in 10.0 mi SSW 6.9 mph - 0.00 in Rain Light Rain
11:56 AM 34.9 °F 30.8 °F 34.0 °F 97% 30.21 in 6.0 mi South 4.6 mph - 0.04 in Rain Light Rain
12:56 PM 36.0 °F 30.3 °F 34.0 °F 93% 30.16 in 7.0 mi South 6.9 mph - 0.03 in Rain Light Rain
1:56 PM 34.9 °F 32.0 °F 34.9 °F 100% 30.14 in 4.0 mi North 3.5 mph - 0.07 in Rain Light Rain
2:56 PM 36.0 °F 30.3 °F 36.0 °F 100% 30.09 in 5.0 mi ENE 6.9 mph - 0.00 in Rain Light Rain
3:17 PM 35.6 °F 30.7 °F 35.6 °F 100% 30.08 in 5.0 mi NE 5.8 mph - 0.00 in   Overcast
3:56 PM 34.9 °F 28.3 °F 34.9 °F 100% 30.07 in 4.0 mi NNE 8.1 mph - 0.00 in Rain Light Rain
4:15 PM 35.6 °F 29.9 °F 35.6 °F 100% 30.07 in 1.8 mi NNE 6.9 mph - 0.01 in Rain Light Rain
4:40 PM 35.6 °F 27.5 °F 35.6 °F 100% 30.07 in 1.5 mi NNE 11.5 mph - 0.06 in Snow Light Snow
5:20 PM 35.6 °F 28.0 °F 35.6 °F 100% 30.07 in 1.8 mi NNE 10.4 mph - 0.08 in Snow Light Snow
5:27 PM 35.6 °F 27.1 °F 35.6 °F 100% 30.07 in 2.5 mi NNE 12.7 mph - 0.09 in Snow Light Snow
5:35 PM 35.6 °F 27.5 °F 35.6 °F 100% 30.07 in 3.0 mi NNE 11.5 mph - 0.11 in Snow Light Snow
5:45 PM 35.6 °F 26.2 °F 35.6 °F 100% 30.12 in 3.0 mi NW 15.0 mph - 0.12 in Snow Light Snow
5:49 PM 35.6 °F 26.2 °F 35.6 °F 100% 30.11 in 2.5 mi NNW 15.0 mph - 0.13 in   Mostly Cloudy
6:12 PM 33.8 °F 24.8 °F 33.8 °F 100% 30.13 in 2.5 mi NNW 12.7 mph - 0.03 in Rain Rain
6:40 PM 33.8 °F 24.8 °F 33.8 °F 100% 30.09 in 3.0 mi NNE 12.7 mph - 0.06 in Rain Light Rain
6:56 PM 34.0 °F 26.0 °F 34.0 °F 100% 30.09 in 4.0 mi ENE 10.4 mph - 0.07 in Rain Rain
7:08 PM 33.8 °F 25.8 °F 33.8 °F 100% 30.08 in 2.5 mi NE 10.4 mph - 0.01 in Rain Light Rain
7:18 PM 33.8 °F 26.4 °F 33.8 °F 100% 30.08 in 3.0 mi NE 9.2 mph - 0.02 in Rain Light Rain
7:56 PM 34.0 °F 28.0 °F 34.0 °F 100% 30.08 in 3.0 mi East 6.9 mph - 0.02 in   Scattered Clouds
8:46 PM 35.6 °F 31.7 °F 35.6 °F 100% 30.06 in 3.0 mi Variable 4.6 mph - 0.00 in Rain Light Rain
9:03 PM 35.6 °F - 35.6 °F 100% 30.05 in 3.0 mi Calm Calm - 0.00 in Rain Light Rain
9:16 PM 33.8 °F 29.6 °F 33.8 °F 100% 30.06 in 2.5 mi NNE 4.6 mph - 0.00 in Rain Light Rain
9:29 PM 35.6 °F 30.7 °F 35.6 °F 100% 30.06 in 1.8 mi North 5.8 mph - 0.00 in   Overcast
9:37 PM 35.6 °F 29.2 °F 35.6 °F 100% 30.06 in 2.0 mi NNE 8.1 mph - 0.00 in   Overcast
9:56 PM 34.9 °F 32.0 °F 34.9 °F 100% 30.06 in 1.8 mi North 3.5 mph - 0.00 in   Overcast
10:28 PM 35.6 °F 30.7 °F 35.6 °F 100% 30.07 in 2.0 mi NNW 5.8 mph - N/A   Overcast
10:56 PM 34.0 °F 29.8 °F 34.0 °F 100% 30.07 in 1.8 mi NNW 4.6 mph - N/A   Overcast
11:06 PM 33.8 °F 29.6 °F 33.8 °F 100% 30.07 in 1.2 mi NW 4.6 mph - N/A   Overcast
11:35 PM 33.8 °F 29.6 °F 33.8 °F 100% 30.06 in 1.0 mi NNW 4.6 mph - N/A   Overcast
11:43 PM 33.8 °F 29.6 °F 33.8 °F 100% 30.07 in 0.8 mi NNW 4.6 mph - N/A   Overcast
11:56 PM 34.0 °F 28.0 °F 34.0 °F 100% 30.06 in 0.5 mi NNW 6.9 mph - N/A Fog Fog